TimeEST,TemperatureF,Dew PointF,Humidity,Sea Level PressureIn,VisibilityMPH,Wind Direction,Wind SpeedMPH,Gust SpeedMPH,PrecipitationIn,Events,Conditions,WindDirDegrees,DateUTC
12:55 AM,32.5,29.3,88,30.18,10.0,NNE,5.8,-,N/A,,Mostly Cloudy,20,2012-11-04 04:55:00
1:55 AM,32.0,28.9,88,30.19,10.0,NNE,5.8,-,N/A,,Clear,30,2012-11-04 05:55:00
1:55 AM,31.3,28.6,90,30.19,10.0,NNE,3.5,-,N/A,,Clear,20,2012-11-04 06:55:00
2:55 AM,29.5,28.0,94,30.19,10.0,Calm,Calm,-,N/A,,Partly Cloudy,0,2012-11-04 07:55:00
3:01 AM,30.2,28.4,93,30.19,4.0,Calm,Calm,-,N/A,,Partly Cloudy,0,2012-11-04 08:01:00
3:06 AM,30.2,28.4,93,30.19,2.0,NNE,3.5,-,N/A,,Scattered Clouds,20,2012-11-04 08:06:00
3:10 AM,30.2,28.4,93,30.19,2.5,NNE,3.5,-,N/A,,Scattered Clouds,20,2012-11-04 08:10:00
3:12 AM,30.2,28.4,93,30.19,3.0,NNE,4.6,-,N/A,,Mostly Cloudy,20,2012-11-04 08:12:00
3:15 AM,30.2,28.4,93,30.19,5.0,NNE,3.5,-,N/A,,Mostly Cloudy,20,2012-11-04 08:15:00
3:55 AM,30.0,27.3,90,30.19,10.0,Calm,Calm,-,N/A,,Mostly Cloudy,0,2012-11-04 08:55:00
4:55 AM,28.9,27.3,94,30.19,10.0,NE,4.6,-,N/A,,Mostly Cloudy,50,2012-11-04 09:55:00
5:55 AM,31.6,28.2,87,30.21,10.0,NW,3.5,-,N/A,,Overcast,320,2012-11-04 10:55:00
6:55 AM,30.2,28.4,93,30.21,10.0,NE,6.9,-,N/A,,Overcast,50,2012-11-04 11:55:00
7:55 AM,32.2,28.0,85,30.22,10.0,Calm,Calm,-,N/A,,Overcast,0,2012-11-04 12:55:00
8:55 AM,32.5,29.1,87,30.23,10.0,Calm,Calm,-,N/A,,Mostly Cloudy,0,2012-11-04 13:55:00
9:55 AM,36.0,30.0,79,30.23,10.0,NNE,5.8,-,N/A,,Overcast,30,2012-11-04 14:55:00
10:30 AM,37.4,30.2,75,30.19,10.0,ENE,6.9,-,N/A,,Overcast,60,2012-11-04 15:30:00
10:55 AM,38.8,29.8,70,30.23,10.0,Calm,Calm,-,N/A,,Overcast,0,2012-11-04 15:55:00
11:55 AM,39.9,29.5,66,30.23,10.0,NNW,6.9,-,N/A,,Overcast,340,2012-11-04 16:55:00
11:59 AM,39.2,30.2,70,30.23,10.0,North,4.6,-,N/A,,Overcast,10,2012-11-04 16:59:00
12:31 PM,41.0,30.2,65,30.22,10.0,Variable,3.5,-,N/A,,Overcast,0,2012-11-04 17:31:00
12:36 PM,42.8,32.0,66,30.21,10.0,NW,4.6,-,N/A,,Overcast,310,2012-11-04 17:36:00
12:55 PM,41.9,30.9,65,30.21,10.0,Variable,4.6,-,N/A,,Overcast,0,2012-11-04 17:55:00
1:44 PM,42.8,30.2,61,30.19,10.0,NW,6.9,-,N/A,,Overcast,310,2012-11-04 18:44:00
1:55 PM,42.1,29.8,62,30.20,10.0,NNW,8.1,-,N/A,,Overcast,340,2012-11-04 18:55:00
2:55 PM,42.3,30.2,62,30.19,10.0,NW,5.8,-,N/A,,Overcast,320,2012-11-04 19:55:00
3:55 PM,42.3,30.2,62,30.18,10.0,NNW,5.8,-,N/A,,Overcast,330,2012-11-04 20:55:00
4:55 PM,42.1,30.4,63,30.18,10.0,North,4.6,-,N/A,,Overcast,350,2012-11-04 21:55:00
5:55 PM,41.7,30.9,66,30.18,10.0,Calm,Calm,-,N/A,,Overcast,0,2012-11-04 22:55:00
6:55 PM,40.6,30.4,67,30.19,10.0,NNE,4.6,-,N/A,,Overcast,20,2012-11-04 23:55:00
7:55 PM,39.6,27.9,63,30.19,10.0,Calm,Calm,-,N/A,,Overcast,0,2012-11-05 00:55:00
8:55 PM,37.0,28.6,71,30.19,10.0,North,6.9,-,N/A,,Scattered Clouds,10,2012-11-05 01:55:00
9:55 PM,32.7,27.5,81,30.19,10.0,NNE,6.9,-,N/A,,Clear,30,2012-11-05 02:55:00
10:55 PM,32.4,27.0,80,30.19,10.0,NNE,3.5,-,N/A,,Clear,20,2012-11-05 03:55:00